�������l�o���
Date,Time,MP-1(��Sv/h),MP-2(��Sv/h),MP-3(��Sv/h),MP-4(��Sv/h),MP-5(��Sv/h),MP-6(��Sv/h),MP-7(��Sv/h),MP-8(��Sv/h),����,����(m/s),���J
2015/02/09,00:00,1.873,3.375,3.540,3.307,3.458,1.100,1.798,2.085,���쐼,12.1,��
2015/02/09,00:10,1.875,3.373,3.542,3.305,3.462,1.100,1.798,2.085,��,10.2,��
2015/02/09,00:20,1.873,3.378,3.533,3.305,3.462,1.102,1.798,2.087,��,7.8,��
2015/02/09,00:30,1.875,3.383,3.540,3.310,3.462,1.100,1.800,2.088,���k��,9.1,��
2015/02/09,00:40,1.875,3.380,3.542,3.307,3.463,1.100,1.802,2.087,��,9.3,��
2015/02/09,00:50,1.873,3.378,3.543,3.312,3.462,1.100,1.800,2.087,��,12.6,��
2015/02/09,01:00,1.872,3.380,3.543,3.310,3.467,1.100,1.800,2.088,���k��,11.3,��
2015/02/09,01:10,1.873,3.380,3.547,3.312,3.465,1.098,1.798,2.090,��,7.5,��
2015/02/09,01:20,1.877,3.382,3.543,3.312,3.465,1.097,1.798,2.090,���k��,6.8,��
2015/02/09,01:30,1.877,3.385,3.540,3.315,3.465,1.097,1.800,2.090,���k��,6.7,��
2015/02/09,01:40,1.875,3.382,3.545,3.312,3.467,1.097,1.800,2.090,�k��,6.3,��
2015/02/09,01:50,1.875,3.385,3.545,3.313,3.462,1.098,1.800,2.090,�k��,6.3,��
2015/02/09,02:00,1.872,3.383,3.550,3.310,3.467,1.098,1.798,2.090,�k��,8.8,��
2015/02/09,02:10,1.872,3.383,3.550,3.318,3.468,1.097,1.797,2.090,�k��,7.7,��
2015/02/09,02:20,1.875,3.387,3.548,3.317,3.468,1.098,1.798,2.090,�k��,8.2,��
2015/02/09,02:30,1.877,3.392,3.553,3.317,3.470,1.097,1.800,2.092,�k��,10.7,��
2015/02/09,02:40,1.875,3.388,3.548,3.318,3.468,1.102,1.800,2.088,�k��,8.5,��
2015/02/09,02:50,1.875,3.390,3.550,3.315,3.472,1.097,1.800,2.092,�k��,9.3,��
2015/02/09,03:00,1.877,3.392,3.550,3.317,3.473,1.098,1.800,2.090,�k��,8.5,��
2015/02/09,03:10,1.878,3.390,3.550,3.312,3.470,1.095,1.800,2.093,�k��,11.8,��
2015/02/09,03:20,1.877,3.395,3.553,3.315,3.473,1.097,1.802,2.090,�k�k��,10.1,��
2015/02/09,03:30,1.873,3.393,3.552,3.317,3.477,1.098,1.800,2.092,�k�k��,9.6,��
2015/02/09,03:40,1.877,3.390,3.557,3.320,3.473,1.097,1.800,2.093,�k��,8.8,��
2015/02/09,03:50,1.875,3.392,3.557,3.320,3.472,1.097,1.800,2.092,�k��,8.8,��
2015/02/09,04:00,1.877,3.392,3.557,3.322,3.475,1.095,1.800,2.093,�k��,6.9,��
2015/02/09,04:10,1.875,3.392,3.557,3.320,3.477,1.095,1.800,2.092,�k��,6.3,��
2015/02/09,04:20,1.877,3.393,3.557,3.322,3.480,1.095,1.802,2.088,���k��,5.1,��
2015/02/09,04:30,1.877,3.395,3.557,3.325,3.477,1.095,1.800,2.090,���k��,7.1,��
2015/02/09,04:40,1.877,3.400,3.558,3.323,3.477,1.095,1.802,2.093,���k��,5.2,��
2015/02/09,04:50,1.877,3.398,3.560,3.323,3.480,1.093,1.798,2.093,�k��,5.4,��
2015/02/09,05:00,1.875,3.397,3.562,3.323,3.482,1.095,1.800,2.093,���k��,5.6,��
2015/02/09,05:10,1.877,3.397,3.562,3.322,3.478,1.095,1.800,2.095,���k��,7.2,��
2015/02/09,05:20,1.878,3.395,3.560,3.325,3.478,1.095,1.800,2.092,���k��,7.4,��
2015/02/09,05:30,1.877,3.400,3.563,3.325,3.483,1.093,1.798,2.092,���k��,8.0,��
2015/02/09,05:40,1.877,3.402,3.565,3.325,3.482,1.095,1.802,2.093,���k��,9.4,��
2015/02/09,05:50,1.877,3.400,3.563,3.325,3.485,1.095,1.802,2.092,���k��,10.5,��
2015/02/09,06:00,1.877,3.400,3.565,3.327,3.480,1.095,1.800,2.092,���k��,14.9,��
2015/02/09,06:10,1.877,3.403,3.563,3.323,3.482,1.090,1.798,2.093,���k��,14.5,��
2015/02/09,06:20,1.877,3.400,3.563,3.328,3.483,1.090,1.800,2.093,���k��,12.4,��
2015/02/09,06:30,1.877,3.400,3.565,3.327,3.485,1.085,1.798,2.093,�k��,10.1,��
2015/02/09,06:40,1.878,3.403,3.567,3.330,3.483,1.087,1.800,2.093,���k��,10.7,��
2015/02/09,06:50,1.875,3.402,3.565,3.327,3.490,1.090,1.800,2.095,���k��,10.4,��
2015/02/09,07:00,1.877,3.402,3.565,3.327,3.487,1.087,1.800,2.097,���k��,10.7,��
2015/02/09,07:10,1.877,3.403,3.567,3.330,3.488,1.085,1.800,2.095,���k��,6.6,��
2015/02/09,07:20,1.877,3.407,3.570,3.328,3.487,1.083,1.800,2.095,�k��,11.2,��
2015/02/09,07:30,1.877,3.407,3.567,3.330,3.488,1.077,1.798,2.098,���k��,11.2,��
2015/02/09,07:40,1.877,3.403,3.562,3.328,3.482,1.072,1.800,2.097,���k��,11.5,��
2015/02/09,07:50,1.878,3.405,3.568,3.325,3.485,1.068,1.800,2.095,���k��,14.5,��
2015/02/09,08:00,1.877,3.405,3.568,3.333,3.488,1.068,1.802,2.095,���k��,15.8,��
2015/02/09,08:10,1.878,3.405,3.572,3.330,3.487,1.068,1.802,2.095,���k��,12.7,��
2015/02/09,08:20,1.878,3.407,3.568,3.327,3.485,1.065,1.800,2.097,���k��,13.4,��
2015/02/09,08:30,1.880,3.407,3.572,3.328,3.490,1.065,1.797,2.097,��,10.5,��
2015/02/09,08:40,1.882,3.405,3.570,3.328,3.495,1.067,1.793,2.095,��,9.3,��
2015/02/09,08:50,1.880,3.407,3.570,3.337,3.498,1.065,1.793,2.097,��,6.3,��
2015/02/09,09:00,1.882,3.407,3.570,3.333,3.495,1.067,1.795,2.093,��,7.7,��
2015/02/09,09:10,1.878,3.408,3.567,3.337,3.497,1.068,1.793,2.095,��,8.2,��
2015/02/09,09:20,1.880,3.412,3.572,3.337,3.502,1.068,1.795,2.095,��,8.6,��
2015/02/09,09:30,1.882,3.408,3.568,3.333,3.502,1.070,1.803,2.095,���k��,6.3,��
2015/02/09,09:40,1.880,3.408,3.572,3.340,3.505,1.072,1.803,2.095,��,9.7,��
2015/02/09,09:50,1.882,3.417,3.573,3.340,3.500,1.072,1.805,2.097,��,9.1,��
2015/02/09,10:00,1.882,3.413,3.573,3.338,3.510,1.072,1.803,2.098,��,7.8,��
2015/02/09,10:10,1.882,3.410,3.572,3.338,3.507,1.072,1.803,2.100,��,8.2,��
2015/02/09,10:20,1.882,3.417,3.578,3.340,3.517,1.070,1.805,2.098,��,8.8,��
2015/02/09,10:30,1.885,3.427,3.577,3.338,3.513,1.073,1.805,2.098,��,7.7,��
2015/02/09,10:40,1.883,3.420,3.583,3.342,3.515,1.072,1.805,2.100,��,8.8,��
2015/02/09,10:50,1.883,-,3.593,3.343,3.515,1.078,1.807,2.100,��,10.2,��
2015/02/09,11:00,1.883,-,3.585,3.345,3.517,1.077,1.807,2.098,���k��,8.8,��
2015/02/09,11:10,1.885,-,3.580,3.343,3.520,1.077,1.808,2.102,��,6.9,��
2015/02/09,11:20,1.883,-,3.582,3.347,3.522,1.077,1.805,2.100,��,5.6,��
2015/02/09,11:30,1.887,-,3.583,3.345,3.520,1.078,1.808,2.098,���k��,5.1,��
2015/02/09,11:40,1.885,-,3.582,3.347,3.523,1.078,1.807,2.098,��,4.2,��
2015/02/09,11:50,1.885,-,3.583,3.348,3.527,1.080,1.805,2.102,���k��,8.6,��
2015/02/09,12:00,1.887,-,3.592,3.348,3.527,1.077,1.808,2.100,��,5.6,��
2015/02/09,12:10,1.885,-,3.600,3.350,3.523,1.078,1.810,2.103,��,8.5,��
2015/02/09,12:20,1.885,-,3.597,3.353,3.528,1.078,1.813,2.102,��,5.8,��
2015/02/09,12:30,1.887,-,3.595,3.348,3.530,1.078,1.810,2.100,��,10.1,��
2015/02/09,12:40,1.888,-,3.602,3.352,3.535,1.078,1.810,2.100,��,9.6,��
2015/02/09,12:50,1.888,-,3.603,3.348,3.535,1.080,1.810,2.105,��,9.4,��
2015/02/09,13:00,1.888,-,3.600,3.352,3.538,1.077,1.810,2.105,���쐼,6.9,��
2015/02/09,13:10,1.890,3.430,3.600,3.352,3.538,1.073,1.810,2.103,���k��,7.1,��
2015/02/09,13:20,1.887,3.438,3.605,3.355,3.538,1.078,1.812,2.103,��,5.5,��
2015/02/09,13:30,1.888,3.440,3.605,3.355,3.538,1.078,1.812,2.105,���k��,6.0,��
2015/02/09,13:40,1.888,3.442,3.605,3.357,3.535,1.082,1.812,2.105,���k��,6.9,��
2015/02/09,13:50,1.887,3.440,3.603,3.355,3.537,1.082,1.812,2.103,���k��,7.2,��
2015/02/09,14:00,1.890,3.442,3.603,3.355,3.540,1.082,1.813,2.105,���k��,6.5,��
2015/02/09,14:10,1.888,3.443,3.607,3.362,3.542,1.083,1.812,2.107,���k��,6.7,��
2015/02/09,14:20,1.890,3.445,3.607,3.353,3.547,1.085,1.810,2.103,���k��,6.9,��
2015/02/09,14:30,1.888,3.443,3.610,3.353,3.543,1.085,1.813,2.102,���k��,6.9,��
2015/02/09,14:40,1.890,3.445,3.610,3.357,3.547,1.083,1.813,2.105,��,6.5,��
2015/02/09,14:50,1.890,3.450,3.610,3.355,3.548,1.085,1.812,2.107,���k��,8.8,��
2015/02/09,15:00,1.890,3.447,3.608,3.353,3.545,1.085,1.812,2.105,���k��,9.3,��
2015/02/09,15:10,1.888,3.452,3.613,3.355,3.542,1.085,1.812,2.105,���k��,8.2,��
2015/02/09,15:20,1.888,3.448,3.612,3.357,3.545,1.085,1.813,2.107,��,8.2,��
2015/02/09,15:30,1.887,3.448,3.613,3.360,3.548,1.087,1.812,2.105,��,8.5,��
2015/02/09,15:40,1.888,3.442,3.612,3.357,3.542,1.087,1.812,2.102,��,7.8,��
2015/02/09,15:50,1.892,3.445,3.610,3.355,3.545,1.090,1.813,2.102,���k��,11.6,��
2015/02/09,16:00,1.888,3.443,3.613,3.362,3.542,1.093,1.815,2.105,��,10.7,��
2015/02/09,16:10,1.888,3.447,3.610,3.358,3.545,1.092,1.813,2.105,��,9.4,��
2015/02/09,16:20,1.892,3.448,3.613,3.362,3.545,1.090,1.812,2.107,��,8.5,��
2015/02/09,16:30,1.890,3.450,3.610,3.357,3.543,1.093,1.813,2.103,��,10.2,��
2015/02/09,16:40,1.888,3.452,3.612,3.360,3.547,1.093,1.812,2.105,��,8.5,��
2015/02/09,16:50,1.887,3.445,3.612,3.360,3.545,1.092,1.810,2.105,���k��,9.1,��
2015/02/09,17:00,1.892,3.450,3.607,3.360,3.545,1.092,1.813,2.105,���k��,9.1,��
2015/02/09,17:10,1.890,3.448,3.608,3.358,3.545,1.093,1.813,2.105,��,8.6,��
2015/02/09,17:20,1.888,3.450,3.608,3.358,3.547,1.092,1.810,2.103,��,7.4,��
2015/02/09,17:30,1.890,3.447,3.613,3.360,3.543,1.092,1.812,2.105,��,8.5,��
2015/02/09,17:40,1.888,3.450,3.610,3.360,3.540,1.092,1.810,2.107,��,8.2,��
2015/02/09,17:50,1.890,3.447,3.608,3.363,3.548,1.093,1.812,2.105,��,8.8,��
2015/02/09,18:00,1.890,3.448,3.615,3.360,3.548,1.092,1.810,2.107,��,9.1,��
2015/02/09,18:10,1.888,3.448,3.610,3.360,3.550,1.093,1.812,2.110,��,8.5,��
2015/02/09,18:20,1.888,3.452,3.608,3.360,3.547,1.093,1.808,2.105,��,8.8,��
2015/02/09,18:30,1.887,3.445,3.607,3.357,3.545,1.093,1.810,2.105,��,9.6,��
2015/02/09,18:40,1.887,3.447,3.607,3.355,3.545,1.098,1.810,2.105,��,8.5,��
2015/02/09,18:50,1.888,3.447,3.607,3.358,3.547,1.095,1.812,2.105,���쐼,6.3,��
2015/02/09,19:00,1.888,3.448,3.610,3.355,3.548,1.093,1.812,2.105,���쐼,6.5,��
2015/02/09,19:10,1.885,3.448,3.608,3.355,3.543,1.097,1.808,2.105,���쐼,5.7,��
2015/02/09,19:20,1.887,3.452,3.610,3.357,3.545,1.095,1.808,2.107,���쐼,8.0,��
2015/02/09,19:30,1.887,3.448,3.612,3.355,3.550,1.097,1.808,2.108,���쐼,7.5,��
2015/02/09,19:40,1.888,3.445,3.610,3.358,3.545,1.098,1.810,2.103,���쐼,8.5,��
2015/02/09,19:50,1.885,3.443,3.603,3.360,3.550,1.095,1.808,2.107,���쐼,7.7,��
2015/02/09,20:00,1.887,3.447,3.605,3.357,3.545,1.098,1.810,2.107,���쐼,7.2,��
2015/02/09,20:10,1.885,3.445,3.610,3.355,3.547,1.097,1.810,2.107,��,6.3,��
2015/02/09,20:20,1.887,3.443,3.607,3.355,3.545,1.095,1.812,2.107,��,5.1,��
2015/02/09,20:30,1.885,3.442,3.605,3.352,3.542,1.097,1.810,2.103,��,6.0,��
2015/02/09,20:40,1.887,3.445,3.607,3.357,3.543,1.100,1.810,2.103,��,5.4,��
2015/02/09,20:50,1.887,3.450,3.612,3.360,3.542,1.097,1.812,2.107,��,7.1,��
2015/02/09,21:00,1.888,3.445,3.610,3.360,3.543,1.093,1.808,2.105,��,7.7,��
2015/02/09,21:10,1.885,3.445,3.608,3.355,3.545,1.097,1.812,2.108,���쐼,7.2,��
2015/02/09,21:20,1.888,3.448,3.608,3.358,3.548,1.098,1.812,2.103,��,7.5,��
2015/02/09,21:30,1.887,3.440,3.608,3.358,3.547,1.098,1.810,2.105,��,8.6,��
2015/02/09,21:40,1.887,3.445,3.610,3.358,3.545,1.100,1.812,2.103,��,9.3,��
2015/02/09,21:50,1.887,3.447,3.610,3.357,3.545,1.097,1.810,2.103,��,9.9,��
2015/02/09,22:00,1.885,3.447,3.608,3.358,3.542,1.097,1.812,2.102,��,11.8,��
2015/02/09,22:10,1.883,3.448,3.612,3.357,3.545,1.095,1.813,2.103,��,12.3,��
2015/02/09,22:20,1.887,3.447,3.613,3.353,3.545,1.098,1.812,2.103,��,12.1,��
2015/02/09,22:30,1.888,3.448,3.608,3.355,3.547,1.098,1.812,2.103,��,13.2,��
2015/02/09,22:40,1.888,3.447,3.605,3.355,3.543,1.100,1.812,2.103,��,13.5,��
2015/02/09,22:50,1.887,3.445,3.607,3.355,3.543,1.097,1.812,2.103,��,13.0,��
2015/02/09,23:00,1.887,3.443,3.610,3.355,3.543,1.098,1.813,2.107,��,12.1,��
2015/02/09,23:10,1.888,3.443,3.607,3.355,3.542,1.098,1.812,2.107,��,11.3,��
2015/02/09,23:20,1.887,3.447,3.608,3.358,3.542,1.097,1.812,2.103,��,9.9,��
2015/02/09,23:30,1.885,3.443,3.612,3.362,3.538,1.095,1.810,2.105,��,7.7,��
2015/02/09,23:40,1.887,3.445,3.608,3.360,3.545,1.097,1.812,2.105,���k��,4.5,��
2015/02/09,23:50,1.887,3.445,3.605,3.357,3.540,1.097,1.810,2.105,���k��,5.6,��
